Wind_Speed
136 137 136 136 136 135 135 134 133 133 133 134 135 135 133 132 134 137 137 136 135 132 127 124 120 118 117 117 117 115 112 109 108 108 110 110 110 113 115 114 112 110 110 109 108 106 106 106 104 102 101 101 103 104 102 100 97 97 101 104 104 104 103 103 103 103 103 103 103 104 104 104 105 106 106 107 107 108 109 109 110 111 112 112 112 110 108
142 142 140 139 139 139 139 139 139 140 141 141 140 137 133 132 133 135 135 135 135 133 129 125 123 123 123 122 119 116 112 111 109 110 112 113 115 118 119 119 117 115 112 112 112 111 110 108 106 104 103 104 107 107 104 101 99 100 105 107 105 104 103 103 103 103 103 104 104 104 105 105 106 106 107 108 108 109 109 110 110 111 111 111 110 109 107
145 143 141 140 140 140 141 141 141 142 142 142 140 138 136 135 135 135 135 136 136 133 128 126 127 128 126 124 121 117 113 112 113 113 114 117 119 120 122 123 121 117 115 114 114 113 111 110 109 106 105 107 109 108 106 105 104 106 109 108 106 106 105 105 105 104 104 104 104 104 105 106 106 107 108 109 109 109 109 109 109 108 108 108 107 106 105
146 144 141 140 140 140 141 141 139 135 135 137 138 137 138 140 139 138 138 138 136 131 129 129 129 126 123 121 119 115 113 114 116 117 119 121 122 123 124 124 122 120 119 118 116 114 112 111 109 108 108 110 109 108 108 108 108 110 111 110 109 109 108 108 107 107 106 106 105 105 105 106 107 108 109 110 110 110 109 107 106 106 106 105 104 102 101
143 143 141 141 141 143 143 141 136 131 131 134 135 134 134 134 135 139 142 139 133 130 130 129 125 121 118 116 114 113 115 117 120 121 122 124 124 124 124 123 121 121 122 121 119 116 114 113 112 111 112 112 110 110 111 111 111 113 114 114 114 112 111 110 110 109 108 108 107 107 107 108 109 110 111 112 111 110 107 105 104 103 103 102 101 99 97
139 139 138 138 143 147 146 139 131 126 127 130 132 133 131 128 126 130 135 135 131 128 128 127 124 119 115 112 112 114 116 119 121 122 122 123 124 124 123 122 122 122 122 122 121 118 117 116 116 116 115 114 113 114 114 113 114 116 117 117 116 115 113 113 112 111 111 110 109 109 109 110 111 112 113 112 110 107 104 102 102 102 102 101 99 98 97
139 138 138 140 145 147 143 135 129 125 124 126 130 132 131 126 123 122 124 128 128 127 126 126 123 119 115 112 112 114 116 118 120 120 120 121 122 122 123 123 123 123 122 121 120 119 118 118 119 119 118 116 115 115 115 115 116 118 119 120 119 118 117 116 115 115 114 113 113 113 113 113 114 113 111 109 106 103 102 102 101 101 101 101 100 99 98
141 141 143 145 146 145 141 138 134 129 126 126 129 132 131 128 125 123 123 124 124 124 123 122 121 120 118 116 115 115 116 117 117 117 117 119 120 121 122 124 124 124 123 121 120 119 119 120 121 122 122 120 119 119 118 118 119 120 121 122 122 122 121 120 119 118 118 117 117 117 117 117 115 113 110 107 105 103 103 103 102 101 101 101 101 100 100
141 142 145 146 146 145 142 138 134 128 125 124 127 130 130 127 126 125 125 123 121 119 118 119 121 124 125 123 120 118 116 116 115 114 114 117 120 121 123 124 125 125 124 122 121 120 121 122 123 124 125 124 122 122 121 120 121 122 124 125 125 125 124 122 121 120 119 119 119 119 118 116 113 110 107 105 103 102 102 102 102 102 101 101 101 102 102
138 140 141 143 144 142 137 133 128 124 122 121 122 127 129 126 124 124 123 123 121 118 118 120 124 128 130 128 123 116 113 113 114 113 114 116 119 121 123 124 125 126 126 125 125 124 124 125 125 127 127 126 125 124 123 122 123 125 127 129 130 128 126 124 122 120 119 118 118 116 114 111 108 106 104 103 101 101 101 101 100 100 100 101 101 102 102
133 134 136 138 139 136 131 125 121 120 119 118 121 127 126 121 119 120 120 121 122 122 124 126 127 130 131 129 123 117 114 116 117 117 117 117 119 122 124 126 128 129 130 130 129 127 127 127 128 129 129 129 128 127 126 126 126 128 132 134 133 131 128 125 122 118 116 115 113 111 108 106 105 104 102 101 100 99 99 99 99 99 99 99 100 100 101
129 130 132 133 133 130 125 120 118 118 119 120 124 124 118 114 116 117 117 119 122 124 126 126 127 129 130 129 125 122 121 122 122 122 121 121 122 124 126 127 129 130 131 132 131 130 129 129 131 132 132 132 131 130 130 130 131 133 135 136 133 131 128 124 120 116 112 110 107 105 104 103 103 102 101 100 99 98 98 98 97 97 97 98 98 99 99
125 126 128 129 128 124 121 119 118 117 119 122 124 119 113 113 115 114 113 115 118 120 121 122 123 124 125 126 126 125 125 125 125 124 124 124 124 125 125 126 128 129 132 134 134 134 133 133 134 135 134 134 134 134 134 135 135 136 136 134 131 129 126 122 118 114 111 108 106 104 103 103 102 102 101 100 99 99 98 97 96 96 97 97 98 98 98
121 123 125 127 125 121 119 119 118 118 120 123 121 116 112 111 112 112 112 113 114 115 117 119 120 120 120 122 124 124 125 126 125 125 124 124 125 126 127 129 130 132 135 137 138 138 137 137 137 137 136 136 136 136 137 137 137 136 133 130 127 125 122 119 116 113 111 109 108 106 104 103 103 102 101 100 100 100 99 98 97 97 97 97 98 98 98
122 122 124 124 123 120 119 118 117 118 121 122 120 118 115 113 112 113 114 113 113 113 113 114 116 117 117 119 121 122 124 124 124 124 123 124 125 127 128 130 132 134 137 139 140 139 139 138 139 139 138 137 136 136 137 137 136 133 130 126 122 119 117 115 113 111 111 110 109 108 106 105 104 103 102 101 102 101 100 99 98 98 98 97 98 98 98
125 124 123 122 121 120 121 121 119 118 119 120 120 120 118 116 116 116 114 114 113 112 111 111 113 114 115 116 116 117 118 119 120 121 121 121 122 124 126 129 132 134 137 139 139 138 138 138 138 138 137 136 134 133 133 132 131 128 125 121 117 115 113 111 111 111 111 112 111 110 109 108 107 105 103 103 103 102 101 100 99 98 98 98 98 98 98
126 125 123 121 121 122 123 123 121 119 120 120 120 120 119 118 118 117 116 115 114 113 112 112 112 113 114 114 114 114 114 114 115 117 118 118 119 121 123 126 129 132 134 136 136 135 134 133 132 131 130 129 127 125 124 123 123 122 120 118 116 114 112 111 111 112 112 113 112 111 111 110 109 107 104 103 103 103 102 101 99 99 98 98 98 98 99
126 125 123 122 123 123 123 123 122 122 123 123 121 120 119 118 118 118 117 116 115 114 113 112 112 113 113 112 112 112 112 111 111 113 114 115 117 118 119 120 122 124 126 127 128 127 125 124 123 123 122 121 120 118 117 117 117 117 118 118 117 115 114 113 113 113 113 112 111 111 110 110 108 107 105 104 104 103 102 101 100 99 98 98 98 98 98
125 123 120 121 124 125 123 121 121 122 124 124 123 121 119 118 118 118 118 117 116 115 114 113 113 113 112 111 110 110 109 108 107 108 109 110 111 112 112 113 114 115 116 117 118 118 118 118 118 118 118 118 117 115 114 115 116 117 118 119 119 118 116 115 115 114 112 111 110 109 109 108 107 105 104 104 103 103 102 101 100 98 98 97 97 97 98
124 120 118 120 124 124 121 119 120 123 125 124 123 122 121 119 118 117 117 118 117 117 115 113 113 113 113 112 110 108 107 106 106 106 107 107 107 108 109 110 110 111 111 112 113 114 115 115 117 118 118 118 117 115 115 115 116 117 118 119 120 118 116 115 115 114 111 109 108 107 106 105 104 104 103 102 101 101 100 99 98 97 97 96 96 96 96
121 118 117 119 122 120 117 117 121 124 124 122 121 121 121 120 119 117 116 117 117 117 116 114 113 112 112 112 111 109 107 106 106 106 106 106 107 108 110 111 111 110 110 110 110 111 112 113 115 117 117 116 115 114 114 115 116 117 117 118 118 116 114 113 112 112 110 107 106 105 104 103 102 101 100 100 99 98 98 97 97 96 96 96 95 95 95
118 115 117 120 120 116 113 115 120 124 123 121 120 119 120 120 120 118 116 115 115 115 115 114 112 110 109 109 109 108 107 105 106 106 105 105 106 108 110 111 111 110 110 109 108 108 108 110 113 113 113 113 112 111 112 113 114 114 115 115 114 113 111 110 109 109 107 105 103 102 101 100 99 98 97 97 96 96 95 95 95 95 95 95 95 95 95
115 113 116 121 121 117 112 112 117 121 121 120 119 119 120 120 120 118 116 114 112 112 114 114 112 109 106 105 104 104 104 104 105 105 104 103 104 105 107 108 108 108 108 108 107 106 105 107 109 109 108 107 106 106 107 108 109 110 111 111 110 109 108 106 105 104 103 101 100 99 99 98 97 95 94 93 93 92 92 93 94 94 94 95 95 95 96
112 111 114 118 119 117 115 114 116 119 120 119 119 118 118 118 117 116 115 112 110 109 110 111 112 111 109 105 102 100 100 100 101 102 101 101 102 103 104 105 105 104 104 106 106 106 104 104 105 105 104 103 102 102 102 103 105 106 107 106 106 105 104 102 101 100 99 97 96 96 96 95 94 92 91 90 90 89 90 91 92 92 93 94 95 97 98
111 109 111 115 117 117 115 115 116 118 119 119 118 116 115 115 114 113 113 111 109 108 107 107 109 111 111 109 104 100 98 97 97 98 97 97 97 99 101 103 104 104 103 104 105 105 105 104 104 104 103 101 100 99 100 101 102 103 103 103 102 101 100 98 97 96 95 94 92 92 92 93 92 91 90 89 89 89 90 92 93 93 93 94 96 98 100
109 108 110 113 115 115 114 114 114 117 119 120 118 116 115 113 112 111 111 110 109 109 108 107 108 109 111 111 108 104 101 98 97 96 95 95 96 97 100 102 104 104 104 103 103 103 104 104 104 105 105 103 100 100 101 101 102 102 101 100 99 97 96 95 94 93 92 91 90 90 91 91 91 90 90 90 90 91 92 94 95 95 95 95 97 99 101
106 105 106 108 110 111 112 112 112 114 117 119 119 117 114 113 112 110 110 110 110 109 109 108 108 109 110 110 109 107 105 103 100 99 99 99 98 99 100 102 104 105 104 102 101 101 101 102 103 105 106 106 105 103 102 102 102 102 101 100 98 96 94 93 93 92 91 90 90 90 92 92 92 92 92 92 92 93 95 96 97 97 97 98 99 101 102
102 101 101 103 104 105 106 108 109 110 113 115 116 115 112 111 110 110 109 109 109 109 108 108 109 108 107 107 107 106 104 102 101 100 99 99 100 99 100 101 103 104 104 102 100 99 100 102 103 104 106 108 107 105 104 103 104 103 103 101 100 98 97 96 94 93 92 91 91 92 93 94 94 94 94 94 95 96 97 98 99 100 100 100 101 102 103
98 97 97 98 99 99 100 102 104 106 107 109 110 110 108 107 106 106 107 107 107 107 107 107 107 107 105 103 102 102 101 99 97 96 95 96 96 98 99 100 102 103 102 101 99 99 100 101 101 102 103 105 106 106 106 106 106 105 105 103 102 102 101 99 97 95 94 93 93 94 94 95 96 97 97 97 98 99 100 100 101 102 102 103 104 105 105
94 93 93 93 94 95 96 97 99 100 102 103 104 104 104 103 102 102 103 105 105 105 105 105 105 105 104 102 100 99 98 96 95 93 92 92 94 96 98 100 101 101 100 99 99 100 100 100 100 100 101 102 104 105 106 106 107 107 106 106 105 104 104 102 101 99 98 97 97 97 98 98 99 99 99 100 100 101 102 102 103 104 105 106 107 107 107
89 89 89 88 89 91 92 93 93 95 96 97 98 99 100 100 99 99 99 101 102 102 102 102 102 103 103 103 101 99 97 95 94 93 92 92 93 95 98 100 100 98 96 97 98 98 98 98 98 98 99 100 101 103 104 106 106 107 107 106 106 106 106 105 105 104 103 102 102 102 102 102 102 102 102 103 103 104 104 104 105 106 107 108 109 110 110
85 86 87 87 86 87 88 89 89 90 91 92 94 95 96 97 97 97 97 98 98 98 97 97 97 98 99 99 98 97 95 93 92 91 90 90 91 93 95 96 96 95 94 94 95 95 96 96 96 96 97 98 100 101 102 103 104 104 104 104 104 105 106 107 108 108 107 107 106 106 105 105 105 105 105 105 106 106 106 105 106 107 109 111 112 112 112
82 83 85 86 86 85 85 86 86 86 87 88 90 91 92 93 93 92 92 93 93 93 92 91 91 91 91 91 91 90 90 89 88 87 88 88 89 90 92 92 92 91 91 90 91 92 92 93 93 94 95 97 98 99 100 100 100 99 99 99 101 102 104 106 107 108 108 108 108 107 107 107 107 107 108 108 108 108 107 107 108 109 111 112 113 114 114
80 81 82 83 85 85 85 85 86 86 86 87 89 90 90 89 88 87 87 87 87 87 87 86 85 85 85 85 85 85 85 85 85 85 85 86 86 87 88 88 88 87 87 87 88 89 89 90 91 92 93 95 96 96 96 96 95 94 94 95 97 99 101 103 104 105 106 106 106 106 107 108 108 109 109 109 110 109 109 109 109 111 112 114 114 115 115
76 77 77 79 80 83 84 85 86 87 87 87 88 88 87 86 85 84 84 84 83 83 83 82 81 81 82 82 82 83 83 83 83 82 82 83 83 83 83 83 84 84 85 85 85 86 87 88 89 90 91 92 92 92 93 92 91 90 91 93 94 96 98 99 101 102 103 103 104 105 107 108 108 109 109 110 110 110 110 110 111 112 113 114 114 115 114
72 72 73 74 75 77 79 81 84 85 86 87 87 87 86 84 82 82 82 82 82 80 80 79 79 79 80 81 81 81 81 80 79 77 77 77 78 78 78 78 79 81 82 83 84 85 86 86 87 87 88 88 88 89 89 88 87 88 89 90 91 93 95 96 98 99 100 101 103 104 105 106 107 108 108 109 109 109 110 111 112 113 113 113 114 113 113
69 68 68 69 70 72 74 76 78 80 81 83 83 84 83 83 83 82 81 81 80 79 78 77 77 77 77 77 77 77 77 76 74 73 73 74 74 74 74 74 76 78 79 81 82 84 85 84 84 84 85 85 86 86 85 85 85 85 86 87 88 90 91 93 94 96 97 99 101 102 104 105 106 106 106 106 107 108 110 111 112 112 112 113 112 112 111
66 66 66 66 67 68 70 71 72 74 75 76 78 78 79 79 81 81 80 80 79 78 77 75 74 72 72 72 72 72 72 72 71 71 71 71 71 71 70 71 73 74 76 78 80 82 82 82 82 82 82 83 83 83 83 83 83 83 84 85 86 87 88 89 91 92 94 96 98 100 101 102 103 104 104 105 106 108 109 110 110 111 111 111 111 111 111
63 64 64 64 65 66 67 68 69 69 70 71 72 74 74 74 75 77 78 78 77 76 74 72 71 69 69 69 69 69 69 69 69 68 67 67 67 66 66 67 69 70 72 74 76 78 79 79 80 80 80 80 80 80 81 82 82 82 81 82 83 84 85 87 88 90 91 93 95 97 98 100 101 102 103 104 105 107 108 108 109 109 110 109 109 109 109
60 60 62 63 64 65 65 65 66 66 67 67 67 69 70 70 71 72 73 73 73 72 71 69 68 67 67 66 66 65 65 65 65 65 64 63 63 63 63 64 65 67 69 71 73 75 76 77 77 77 77 77 77 78 79 79 79 79 79 79 81 82 83 84 86 88 89 91 93 94 96 97 98 99 100 102 103 105 106 106 107 107 107 107 107 107 107
58 59 60 62 63 63 63 63 63 64 64 64 64 65 66 67 68 68 69 68 68 68 68 67 66 65 65 64 63 63 62 61 61 61 61 61 60 60 61 62 63 64 66 68 69 71 72 73 73 73 73 73 74 75 75 76 76 76 76 77 78 79 81 82 84 85 86 88 89 91 92 94 95 96 97 99 101 102 102 103 103 104 104 104 104 104 103
59 59 59 60 61 61 61 61 62 62 62 62 61 62 63 64 64 65 65 65 65 65 64 64 63 63 62 62 62 61 61 60 60 60 60 60 59 59 60 61 62 63 64 65 66 67 68 69 69 69 69 70 71 71 72 72 72 73 74 74 75 76 77 78 80 81 83 85 86 88 89 90 92 93 95 96 97 98 99 99 100 100 100 100 100 99 98
59 58 58 58 59 59 59 60 60 60 60 60 59 59 60 61 61 62 62 62 62 62 61 61 61 61 61 61 60 60 60 60 60 60 60 59 59 60 60 60 60 61 62 63 64 65 65 66 67 67 67 68 68 69 69 70 70 71 71 71 72 72 73 74 76 78 80 81 83 84 86 87 88 89 90 91 92 93 94 95 95 95 95 95 95 94 93
57 56 56 56 57 57 58 58 58 58 58 57 57 57 57 58 58 59 59 59 59 59 59 58 58 58 59 59 58 59 59 59 59 59 58 58 58 58 58 58 58 59 59 60 61 62 63 64 65 65 66 66 67 67 68 68 68 69 69 69 69 70 71 72 74 75 76 77 78 80 81 82 83 84 85 86 87 88 88 89 89 90 90 90 90 89 89
55 54 55 55 55 56 56 56 56 55 55 55 55 55 55 55 55 55 56 56 55 56 56 56 55 55 55 55 56 56 56 56 56 56 56 56 56 56 56 57 57 57 57 58 58 59 60 60 61 62 63 64 65 65 66 66 66 66 67 67 68 69 70 71 72 72 73 73 74 75 76 77 78 79 80 81 82 83 84 84 85 86 86 86 87 87 87
54 54 54 54 54 54 53 53 53 53 53 53 53 53 53 53 53 53 53 53 53 53 53 53 53 53 53 53 53 53 53 54 54 54 54 54 54 55 55 55 55 55 55 56 56 56 56 57 58 59 60 61 62 63 63 63 64 64 65 65 66 67 68 69 69 69 70 70 71 72 73 74 75 76 77 78 79 80 81 81 82 83 83 83 84 84 84
53 53 53 52 52 51 51 51 51 51 51 51 51 51 51 51 51 51 51 51 51 51 51 51 51 50 50 51 51 51 51 51 52 52 52 52 52 52 52 52 52 52 53 53 53 53 53 54 55 56 57 58 59 60 60 61 61 62 62 63 64 64 65 65 66 67 68 68 69 70 71 72 73 74 74 75 76 77 78 79 80 80 80 81 81 80 80
51 51 51 50 50 49 49 49 49 49 49 49 49 49 49 48 49 49 49 49 49 48 48 48 48 48 48 48 49 49 49 49 49 49 49 49 49 49 49 49 49 49 50 50 50 51 51 52 52 53 54 55 56 56 57 58 59 59 60 61 61 62 62 63 64 65 66 67 67 68 69 69 70 71 72 73 74 75 76 77 77 78 78 77 77 76 75
49 49 49 48 48 47 47 47 47 47 47 47 46 46 46 46 46 46 47 47 46 46 46 46 46 45 45 45 46 46 46 46 46 46 47 47 47 47 46 47 47 47 47 47 48 48 49 49 50 51 52 53 53 54 55 56 57 57 58 58 59 60 60 61 62 63 64 64 65 66 67 68 69 70 71 72 72 73 74 74 75 74 74 73 72 71 71
46 46 46 46 46 46 45 45 45 45 45 45 44 44 43 43 43 43 44 44 44 43 43 43 43 43 42 43 43 43 44 44 44 44 44 44 45 45 45 45 45 45 45 45 45 46 47 47 48 49 50 51 52 53 54 55 55 56 57 57 58 58 59 60 61 62 62 63 64 65 66 67 68 69 70 70 71 71 71 71 71 71 70 69 69 68 67
45 45 44 44 44 44 43 43 43 43 43 43 42 42 41 41 41 41 41 41 41 41 41 41 41 41 40 40 40 41 41 42 42 42 42 43 43 43 43 43 43 43 44 44 45 45 46 46 47 48 49 50 51 51 52 53 54 55 56 56 57 58 59 59 60 61 62 63 64 65 66 66 67 67 68 68 68 68 68 68 68 68 68 67 66 65 64
43 43 42 42 42 42 42 42 42 41 41 41 40 40 39 39 39 39 39 39 39 39 39 39 39 39 39 39 39 39 39 40 40 40 40 41 41 41 41 41 41 42 42 43 44 44 45 45 46 46 47 48 49 50 51 52 53 54 55 56 57 58 58 59 60 61 62 63 63 64 65 65 66 66 66 66 66 66 66 66 66 65 65 64 63 62 62
Wind_Direction
278 278 279 280 280 281 281 282 281 282 282 281 281 282 283 285 285 285 285 284 283 284 284 284 284 283 282 282 282 281 281 281 279 278 277 278 282 285 286 286 286 284 283 284 285 286 285 285 286 285 284 283 285 287 289 290 289 287 288 290 290 291 291 292 292 293 293 293 292 292 293 293 294 294 294 294 294 294 295 295 295 294 293 292 292 292 292
276 277 277 279 280 280 281 281 281 281 281 281 282 283 284 283 281 280 280 280 281 282 283 283 283 282 281 281 281 281 281 280 277 277 278 281 285 286 286 287 287 285 284 285 286 286 286 286 287 286 284 284 286 288 289 291 289 288 290 291 291 291 292 292 293 293 293 293 292 293 293 293 293 293 293 293 293 293 293 293 293 292 291 291 291 292 292
275 276 277 278 278 278 278 278 278 279 280 281 283 284 282 280 278 278 279 279 280 281 281 281 281 281 281 281 281 281 280 279 277 278 281 284 285 284 285 286 286 285 285 285 285 285 285 286 286 285 284 285 287 288 289 291 291 290 291 292 292 292 293 293 293 292 292 292 292 293 293 293 293 293 293 292 292 292 292 292 292 291 290 290 290 291 292
276 277 277 277 276 276 275 275 275 276 279 281 282 281 281 281 281 281 280 279 279 280 279 278 279 280 280 280 281 281 280 279 279 281 283 284 283 283 284 285 286 285 285 285 285 285 285 285 285 284 285 288 288 288 290 292 292 292 292 293 294 294 294 293 293 293 292 292 292 292 293 293 293 292 292 292 292 292 292 292 291 290 289 289 290 290 291
274 275 275 276 275 273 272 273 274 276 277 278 278 278 279 280 282 282 282 282 282 282 280 279 279 279 279 280 281 281 280 279 280 283 284 283 283 283 284 285 285 285 286 287 286 286 286 286 286 287 289 290 290 290 291 292 292 292 293 293 294 294 293 293 293 293 293 293 292 292 292 292 293 293 293 292 292 292 291 291 290 289 290 290 290 291 291
270 271 272 272 271 272 273 274 275 275 275 275 276 277 278 278 278 280 281 283 283 282 281 281 281 282 283 284 283 281 280 281 282 283 283 283 283 283 283 284 285 286 287 287 287 287 287 287 287 289 290 290 289 290 291 292 292 292 292 293 293 293 293 293 293 293 293 293 292 292 292 293 293 293 293 292 292 291 291 290 290 290 291 291 292 292 292
268 268 268 267 268 270 273 273 272 270 271 273 276 277 278 277 276 275 277 278 279 279 280 281 282 284 284 283 281 280 280 281 282 282 283 283 283 283 284 285 285 286 287 287 287 287 287 287 287 289 290 290 290 291 292 292 292 292 292 292 292 293 293 293 293 294 293 293 293 293 293 294 294 294 293 293 292 292 291 291 291 292 292 292 292 293 293
267 267 266 266 268 269 270 269 269 269 270 271 272 273 274 273 272 272 272 273 274 276 278 280 281 282 281 279 277 276 277 278 279 280 281 281 281 282 283 284 285 286 286 286 286 286 286 286 287 288 290 290 290 291 292 292 292 291 291 291 292 292 293 293 294 294 294 294 294 294 294 294 294 294 294 294 293 293 292 292 292 292 292 292 292 293 293
266 266 266 267 268 268 269 269 270 270 269 269 269 269 271 270 269 268 268 269 270 273 275 277 278 278 276 275 274 274 275 276 276 277 277 278 279 280 282 283 284 285 285 285 285 284 285 285 287 288 289 289 290 290 291 290 290 290 290 291 291 292 292 293 293 293 293 293 294 294 293 293 293 293 293 293 293 292 292 292 292 292 291 291 292 292 292
266 266 267 267 268 269 270 270 271 271 269 268 267 268 269 269 267 266 266 267 268 269 270 270 271 272 272 273 274 275 275 275 274 274 274 275 276 277 279 280 281 282 282 282 283 283 283 284 285 286 287 287 287 288 288 287 287 288 289 289 290 291 292 292 292 292 292 293 292 292 292 291 291 292 292 292 292 291 291 291 291 291 290 291 291 291 291
266 266 267 267 268 269 271 271 272 272 270 269 267 267 269 270 268 266 265 265 266 265 265 264 265 266 268 270 272 273 272 272 272 272 272 273 274 275 276 277 279 279 280 281 281 281 281 281 282 283 284 284 284 285 285 286 286 286 287 288 289 290 291 291 291 292 292 291 291 291 290 290 290 291 291 291 291 291 290 290 290 290 290 290 290 290 291
266 266 266 267 269 271 272 273 273 272 271 270 269 270 272 272 268 265 265 264 264 264 263 263 264 264 265 267 268 269 269 269 270 271 272 272 272 273 275 276 278 279 280 280 280 281 280 280 281 282 282 282 283 284 285 285 285 286 286 287 288 289 290 291 291 291 291 290 290 290 290 290 290 290 290 290 290 290 290 289 289 289 290 290 290 290 290
266 267 267 268 269 271 272 272 272 272 271 270 270 272 274 273 270 268 267 265 265 264 265 265 265 265 265 266 267 267 266 267 268 269 270 270 271 272 274 275 276 278 278 279 279 280 280 280 280 281 282 282 283 284 284 285 285 285 286 287 288 289 290 291 291 291 291 291 290 290 290 290 290 290 290 291 291 290 290 290 290 290 290 290 289 290 290
266 266 267 268 269 270 270 270 271 272 271 271 273 274 274 273 272 272 270 269 267 267 266 266 266 266 266 266 266 266 266 266 266 267 268 269 269 271 272 273 274 275 276 276 277 278 278 279 280 281 282 282 283 284 284 284 285 285 286 287 288 288 289 290 290 290 291 291 290 290 290 290 290 290 291 291 291 291 290 290 290 290 290 290 290 290 291
266 266 266 268 269 270 271 270 270 270 271 272 274 274 274 274 273 272 271 270 269 268 267 266 266 266 265 265 265 266 266 267 268 268 269 269 269 269 270 271 272 273 273 274 275 276 277 278 279 280 281 282 283 283 283 284 284 285 285 286 287 287 287 288 289 290 290 290 290 290 290 290 290 290 291 291 291 290 290 290 290 290 290 290 291 291 291
267 267 268 269 270 271 271 271 270 270 270 271 271 272 272 272 272 271 271 270 270 269 268 268 267 267 266 266 266 266 267 268 269 269 270 270 270 270 270 270 271 271 272 273 274 275 277 278 279 280 281 281 282 282 282 283 283 284 285 285 285 286 286 287 288 289 289 289 289 290 290 290 290 290 290 290 290 290 290 290 290 290 290 291 291 291 291
269 269 270 270 270 270 270 271 271 271 271 270 270 270 270 270 270 270 270 270 269 269 269 268 268 267 267 267 267 267 267 267 268 269 269 270 270 270 270 270 271 271 272 273 274 275 277 278 278 279 280 281 281 281 282 282 283 283 283 284 284 285 286 286 287 287 288 288 288 288 288 289 289 289 289 289 289 290 290 290 290 290 291 291 291 291 291
269 269 270 271 270 270 270 270 271 272 271 271 270 270 270 270 269 269 269 269 269 268 268 268 268 267 267 267 267 267 267 266 267 267 267 268 269 269 269 269 270 270 271 273 274 275 277 278 278 279 279 280 280 281 281 282 282 282 282 283 283 284 285 286 286 286 286 286 286 286 287 287 287 288 288 289 289 289 290 290 290 290 291 290 290 290 290
269 269 270 271 270 270 270 270 271 271 271 271 271 270 270 270 269 269 269 269 269 269 268 268 268 268 268 267 267 267 267 267 267 267 267 267 267 268 268 268 269 270 271 272 274 275 276 277 277 278 278 279 279 280 280 280 281 281 281 282 282 283 284 284 284 284 284 285 285 285 285 286 286 287 287 288 288 288 289 289 289 289 289 289 289 289 290
269 269 270 270 269 270 271 271 271 271 270 271 271 272 272 271 271 270 270 270 270 270 269 269 268 268 269 269 269 268 268 269 269 269 269 268 268 268 268 269 269 270 271 272 273 274 275 276 276 276 276 277 277 278 279 279 279 279 279 280 280 281 282 283 283 283 283 283 283 284 284 285 285 286 286 286 287 287 287 288 288 288 288 288 288 288 289
269 269 270 269 268 269 270 271 271 271 271 271 271 272 273 273 272 271 271 270 270 270 270 270 269 269 269 270 270 270 270 270 270 270 270 270 270 270 270 270 271 271 271 272 272 273 273 274 274 274 274 275 276 276 276 277 277 277 277 278 278 279 280 280 281 281 281 282 282 283 283 284 284 284 285 285 285 285 286 286 286 286 286 286 287 287 288
268 269 269 269 269 269 269 269 269 270 271 272 272 272 272 272 272 271 271 271 271 271 271 271 270 269 269 270 270 271 271 271 271 271 271 270 270 271 271 272 273 273 273 273 273 272 272 272 272 273 273 274 275 275 275 275 275 275 276 276 277 277 278 278 279 279 280 281 281 282 282 283 283 283 283 284 284 284 284 285 285 285 286 287 287 288 288
267 267 267 268 268 269 268 268 268 269 270 270 271 271 271 271 271 271 271 271 271 272 272 272 272 272 271 270 270 270 271 272 272 272 271 271 270 271 271 272 273 273 274 274 273 272 272 272 272 273 273 274 274 274 274 274 274 274 274 275 275 276 277 277 278 279 279 280 281 281 282 282 281 281 282 282 283 283 283 284 284 285 286 287 288 289 289
265 265 265 265 267 268 268 268 268 267 268 268 269 269 270 271 271 272 272 272 272 271 271 272 273 274 274 273 272 272 272 272 273 273 273 273 273 273 273 273 273 273 273 273 273 273 272 272 272 272 272 273 272 272 271 272 272 272 273 274 274 275 276 277 278 279 280 281 281 281 281 281 280 280 280 281 281 282 282 282 283 284 285 286 287 288 288
264 264 264 264 264 265 266 266 267 267 267 267 267 268 269 269 270 271 272 272 272 272 271 271 272 273 274 275 275 274 273 272 272 273 273 273 272 272 272 273 273 272 272 272 272 272 273 272 272 272 271 271 270 269 268 268 269 271 272 273 273 274 275 276 277 278 279 280 281 280 280 280 280 280 280 280 281 281 281 281 282 283 284 284 285 286 287
265 264 263 263 263 263 263 264 265 266 266 267 268 268 268 269 269 270 270 271 271 271 271 271 271 272 273 274 275 275 275 274 274 274 274 273 272 271 271 271 271 271 270 270 269 269 270 271 271 271 271 270 269 266 266 266 267 269 270 271 272 273 274 275 276 277 278 278 279 278 278 278 278 279 279 280 280 281 281 281 282 282 283 284 284 285 286
264 264 263 263 262 262 263 263 264 264 265 265 266 267 268 269 270 270 271 271 271 271 271 271 271 271 272 273 274 274 275 275 274 273 272 272 271 270 269 269 269 269 268 268 268 267 267 267 267 268 268 269 269 267 266 266 266 267 268 269 270 271 272 273 274 275 276 276 276 276 276 277 277 278 278 279 279 280 280 281 282 283 283 284 284 285 286
265 265 264 264 264 264 263 264 264 264 264 265 266 267 268 269 270 271 272 272 272 272 272 272 271 271 271 271 272 273 273 272 271 270 269 269 268 268 267 266 267 267 267 267 267 267 266 266 265 265 265 266 267 267 267 266 266 266 266 267 268 269 270 271 271 272 273 273 273 274 275 276 276 277 277 277 278 278 279 280 282 282 283 284 284 285 286
266 266 265 265 265 265 265 265 265 265 266 266 267 267 268 269 270 271 271 272 272 272 272 273 273 273 273 272 272 272 271 270 269 268 267 266 266 266 266 266 266 266 266 266 266 265 265 264 264 263 263 263 264 265 265 265 264 264 264 265 266 267 268 269 269 270 271 271 271 272 272 273 274 274 275 276 277 278 279 280 281 282 283 283 284 285 286
267 266 266 266 266 266 266 266 266 267 267 268 269 269 270 270 270 270 270 271 271 271 272 272 273 273 273 273 272 271 271 270 269 268 268 267 267 268 268 267 266 266 266 266 266 265 264 264 263 263 263 262 262 262 263 263 263 263 263 264 265 266 267 268 268 269 269 269 269 269 270 271 271 273 274 275 276 277 278 279 280 281 282 283 284 285 286
268 268 268 268 268 268 268 268 268 268 269 269 270 270 270 270 270 269 268 268 268 269 269 270 270 271 271 271 271 271 270 270 270 270 269 269 269 268 268 267 267 266 266 266 266 266 265 265 265 264 264 263 263 262 262 262 262 262 262 263 264 265 266 266 267 267 267 267 268 268 269 270 271 272 273 274 275 276 277 278 279 280 281 282 283 284 286
270 271 271 271 270 269 269 269 269 269 269 269 269 269 269 268 268 268 267 267 266 266 266 266 267 267 268 268 269 270 270 270 270 270 269 268 267 267 266 266 267 267 266 266 266 266 266 266 266 266 265 264 264 263 263 262 262 262 263 263 264 264 265 265 266 266 267 267 267 268 269 270 271 271 272 273 274 275 276 278 278 279 280 281 283 284 286
271 271 271 272 272 271 271 271 270 270 269 269 269 268 268 267 267 267 267 267 267 267 267 266 266 266 267 268 269 269 269 269 269 268 268 267 267 266 266 266 266 267 267 266 266 266 266 266 266 265 265 264 264 264 263 263 263 264 264 264 264 264 264 265 265 266 266 267 267 268 269 270 270 271 271 272 273 275 276 277 278 278 280 281 282 284 285
270 270 270 270 271 272 272 272 271 271 270 270 269 269 268 268 269 269 269 269 269 269 270 270 270 270 269 269 269 269 269 268 268 267 267 266 266 266 267 267 268 268 268 267 267 266 266 266 265 265 264 264 264 264 264 264 264 264 264 264 263 263 264 264 265 266 266 267 268 268 269 269 270 270 271 272 273 274 276 276 277 278 279 280 281 283 284
269 269 269 269 269 270 271 271 271 270 270 270 270 271 271 271 271 271 271 271 271 271 272 272 272 272 272 271 270 269 268 267 267 267 267 267 267 267 268 268 269 269 268 268 267 267 266 266 265 265 264 265 265 265 265 265 265 265 264 264 263 263 264 264 265 266 266 267 268 268 268 269 269 270 271 272 273 274 275 276 277 277 278 279 281 282 284
270 269 269 268 268 268 269 269 269 270 270 270 271 272 273 273 273 273 273 273 273 273 273 273 272 272 272 271 271 271 270 270 270 270 269 269 269 269 268 268 268 268 267 267 267 266 266 265 265 265 265 266 266 266 266 266 266 265 265 264 264 264 264 264 264 265 266 266 267 267 268 268 269 270 271 272 273 274 275 275 276 277 278 279 280 282 283
272 271 270 269 268 268 267 267 268 268 269 269 270 271 273 274 274 274 274 274 274 274 273 272 272 272 272 272 273 273 273 273 273 272 271 270 269 269 268 267 267 267 266 266 266 266 265 265 266 266 266 266 266 266 266 266 266 265 265 264 264 264 264 264 264 265 265 265 266 266 267 268 269 270 271 271 272 272 273 274 275 276 277 279 280 282 283
274 273 272 271 270 269 268 267 267 267 268 269 269 270 270 271 272 274 274 274 274 274 274 274 274 274 274 273 273 273 273 272 272 271 270 270 269 269 269 268 267 266 266 266 266 266 266 266 266 265 265 265 265 266 266 265 265 264 264 264 263 263 263 263 263 263 264 264 264 265 266 267 268 269 269 270 270 271 272 273 275 276 277 279 280 282 283
273 273 273 271 270 269 268 268 268 268 268 268 269 270 270 270 271 271 272 273 274 275 275 276 276 275 274 274 273 272 272 272 271 271 270 270 269 269 268 267 267 266 266 265 265 265 266 265 265 265 265 265 265 265 265 264 264 264 263 263 263 263 262 262 262 262 262 262 263 263 264 265 266 267 267 268 269 270 272 273 274 276 277 279 280 281 283
273 273 272 271 270 270 270 269 270 270 269 269 270 270 271 271 271 271 272 273 275 276 276 276 276 275 274 274 273 272 272 272 272 272 272 271 270 268 267 265 265 264 264 264 264 265 265 265 266 266 266 266 265 265 265 265 264 264 264 263 263 262 262 261 261 261 261 261 262 262 263 264 265 266 267 268 269 270 271 273 274 276 277 278 280 281 282
273 272 271 271 271 271 271 271 272 272 272 272 271 271 271 272 272 273 273 273 274 274 275 275 275 275 275 275 274 274 273 273 272 271 270 269 268 267 266 265 264 263 263 263 264 265 265 266 267 267 267 267 267 266 266 266 266 265 264 263 262 262 262 262 262 262 262 262 262 263 263 264 265 266 266 267 269 270 271 273 274 276 277 278 279 281 282
272 271 271 272 272 273 274 274 274 273 273 273 272 272 272 272 272 272 273 273 273 273 274 274 274 274 274 274 274 274 273 272 271 270 270 269 268 267 266 265 264 264 264 264 265 265 266 266 267 267 267 267 267 267 267 267 266 266 265 264 263 263 263 262 262 262 262 262 262 263 263 264 265 266 267 268 269 271 272 273 274 276 277 278 279 280 282
273 273 274 274 275 275 275 274 274 274 273 273 273 272 272 272 272 272 272 272 272 272 273 273 273 273 273 273 273 273 273 273 273 272 272 271 270 269 268 267 266 265 265 265 265 265 266 266 266 266 266 266 266 266 266 266 266 266 265 265 265 264 264 263 262 262 262 262 263 263 264 265 266 266 267 269 270 271 272 273 274 275 277 278 279 281 282
275 276 276 276 276 275 275 275 275 275 275 275 274 273 273 272 272 272 272 272 272 272 273 273 272 272 273 273 273 273 273 273 273 273 273 272 272 271 270 269 268 267 266 265 265 265 265 265 265 265 265 265 265 265 265 265 265 265 265 265 265 264 263 262 262 262 262 263 264 264 265 266 266 267 268 269 270 271 272 273 275 276 277 278 280 281 282
277 277 276 275 275 275 275 275 276 276 276 276 275 275 274 273 273 273 273 273 273 273 273 273 273 273 273 273 273 273 273 273 273 273 272 272 272 271 270 270 269 268 267 267 266 266 265 265 265 265 265 265 265 265 265 265 265 265 265 264 264 264 264 264 264 264 264 265 265 266 266 267 267 268 269 270 271 272 273 274 275 276 278 279 280 281 282
277 276 275 275 275 275 276 276 276 276 276 276 275 275 275 275 274 274 274 274 274 274 274 274 274 274 274 274 274 274 274 273 273 273 272 271 271 271 270 270 270 269 269 268 267 267 266 265 265 264 264 264 264 265 265 264 264 264 264 264 264 265 265 265 266 266 266 266 266 266 267 267 268 269 269 270 271 272 273 274 275 276 278 279 280 281 282
276 276 276 276 276 276 276 275 275 275 274 274 274 274 275 275 275 275 275 275 275 275 275 275 275 275 275 275 275 275 274 274 273 273 273 272 272 271 271 270 270 270 269 269 268 267 266 265 265 264 264 264 264 264 265 265 264 264 264 264 265 265 265 266 266 266 266 266 266 267 267 268 269 270 270 271 272 273 274 275 276 277 278 279 280 282 283
276 276 276 276 276 276 275 275 274 274 274 273 273 274 274 275 275 275 275 275 275 275 275 275 275 275 275 275 274 274 273 273 273 273 272 272 272 272 271 271 271 270 269 269 269 268 267 267 266 266 266 265 265 265 265 265 265 265 265 265 265 265 266 266 266 266 267 267 268 268 269 269 270 271 271 272 273 274 274 275 277 278 279 281 282 284 285
276 275 275 276 275 275 275 275 274 274 274 274 274 274 275 275 275 275 275 276 276 276 276 275 275 275 275 274 274 273 273 273 272 272 272 272 272 272 272 272 272 271 271 271 270 270 269 268 268 267 267 266 266 266 266 266 266 266 266 266 266 267 267 267 267 268 269 269 269 270 270 270 271 271 272 273 274 275 276 278 279 281 282 283 284 285 286
275 275 275 275 275 275 275 275 275 275 275 275 276 276 276 276 276 276 276 276 276 276 276 276 275 275 275 274 274 274 274 274 274 274 273 273 273 273 273 273 273 273 273 272 271 270 270 269 269 268 268 267 267 267 267 267 267 268 268 268 268 268 268 269 269 269 269 270 270 271 271 272 273 274 275 276 277 278 280 281 282 283 284 285 286 286 287
275 275 275 275 275 275 275 276 276 276 277 277 277 277 277 277 277 277 276 276 276 276 276 276 276 276 275 275 275 275 275 275 275 275 274 274 274 274 274 273 273 272 272 272 271 271 270 270 269 269 269 269 269 269 269 269 269 269 269 270 270 270 270 270 270 271 271 272 272 273 274 275 276 277 278 279 280 281 282 283 284 285 285 286 286 286 287
274 275 275 275 276 276 276 276 277 277 278 278 278 278 278 278 278 277 277 277 277 277 277 277 277 277 277 277 276 276 276 275 275 275 275 275 275 274 274 273 273 272 272 271 271 271 270 270 269 269 268 269 269 269 269 269 269 270 270 270 271 271 272 272 273 273 274 275 275 276 277 278 279 280 280 281 282 283 283 284 284 285 285 286 286 287 287
Height
10451 10452 10452 10459 10463 10466 10471 10469 10468 10471 10470 10467 10464 10462 10472 10479 10468 10459 10462 10462 10458 10466 10478 10485 10494 10499 10492 10487 10486 10485 10485 10484 10480 10471 10461 10464 10474 10472 10464 10463 10465 10462 10460 10460 10460 10460 10457 10454 10453 10452 10450 10448 10447 10446 10447 10445 10442 10439 10436 10432 10428 10425 10422 10419 10415 10412 10409 10406 10402 10399 10397 10395 10391 10387 10383 10379 10375 10371 10367 10363 10359 10355 10350 10346 10341 10337 10334
10434 10439 10440 10444 10446 10446 10449 10449 10448 10448 10445 10443 10446 10453 10463 10462 10447 10440 10443 10441 10442 10455 10463 10466 10471 10472 10466 10466 10469 10472 10472 10468 10464 10459 10449 10449 10455 10452 10445 10445 10446 10443 10444 10444 10444 10443 10441 10439 10437 10434 10432 10431 10430 10431 10430 10427 10426 10423 10419 10415 10412 10409 10407 10404 10401 10398 10395 10391 10389 10386 10384 10382 10378 10374 10369 10365 10361 10357 10353 10349 10345 10341 10336 10331 10327 10323 10320
10414 10430 10434 10432 10431 10426 10423 10427 10428 10425 10424 10430 10436 10438 10436 10431 10423 10426 10431 10425 10427 10444 10450 10445 10445 10447 10445 10447 10451 10456 10456 10448 10443 10446 10443 10437 10435 10432 10427 10425 10424 10425 10427 10428 10428 10428 10427 10425 10421 10417 10415 10416 10415 10414 10412 10410 10409 10406 10402 10399 10396 10393 10391 10388 10386 10383 10380 10377 10374 10372 10370 10367 10363 10359 10354 10349 10346 10342 10338 10334 10330 10325 10321 10317 10313 10309 10306
10393 10417 10423 10415 10413 10406 10396 10400 10410 10417 10421 10423 10421 10416 10409 10404 10404 10409 10410 10406 10413 10431 10431 10421 10425 10431 10429 10429 10433 10437 10435 10425 10423 10432 10434 10424 10416 10412 10410 10408 10405 10405 10407 10408 10410 10413 10413 10410 10407 10403 10401 10401 10399 10396 10394 10393 10392 10388 10385 10382 10380 10377 10375 10372 10370 10367 10364 10362 10359 10357 10354 10351 10347 10343 10338 10334 10330 10326 10323 10319 10315 10310 10306 10302 10298 10295 10291
10377 10396 10403 10396 10390 10374 10365 10383 10404 10413 10415 10409 10399 10396 10399 10399 10394 10386 10382 10386 10399 10407 10402 10398 10406 10413 10413 10415 10418 10416 10407 10400 10405 10415 10414 10405 10397 10393 10392 10392 10389 10387 10387 10386 10387 10392 10394 10392 10390 10388 10386 10384 10381 10379 10378 10378 10375 10372 10369 10366 10364 10362 10359 10356 10353 10351 10348 10346 10344 10341 10338 10334 10330 10326 10323 10319 10315 10311 10308 10304 10299 10295 10291 10287 10283 10280 10277
10362 10375 10384 10376 10355 10338 10350 10384 10401 10397 10393 10388 10381 10381 10390 10395 10390 10378 10369 10371 10380 10381 10376 10379 10386 10394 10401 10404 10400 10390 10382 10382 10390 10394 10389 10382 10376 10374 10374 10376 10375 10373 10370 10368 10369 10373 10375 10374 10372 10372 10370 10367 10365 10363 10364 10363 10360 10357 10353 10350 10347 10345 10342 10339 10337 10335 10333 10330 10328 10325 10321 10318 10315 10311 10308 10304 10300 10296 10292 10288 10283 10279 10275 10272 10268 10265 10262
10344 10354 10360 10343 10323 10329 10355 10374 10377 10375 10376 10376 10371 10368 10374 10379 10377 10373 10366 10360 10360 10362 10363 10367 10373 10379 10387 10387 10379 10370 10366 10370 10374 10373 10369 10362 10355 10354 10359 10360 10360 10359 10356 10353 10354 10356 10356 10355 10355 10354 10353 10351 10349 10349 10349 10348 10345 10341 10337 10334 10331 10328 10325 10324 10322 10320 10318 10314 10312 10309 10305 10302 10299 10295 10292 10288 10284 10280 10276 10272 10268 10265 10261 10257 10254 10251 10247
10326 10329 10328 10314 10310 10329 10344 10344 10351 10366 10372 10371 10362 10351 10353 10363 10363 10359 10355 10349 10348 10350 10354 10360 10364 10365 10363 10359 10357 10356 10357 10361 10362 10358 10353 10345 10338 10340 10345 10345 10344 10343 10341 10340 10340 10340 10340 10338 10337 10337 10335 10333 10333 10333 10333 10332 10329 10325 10321 10318 10315 10312 10310 10309 10307 10305 10302 10299 10296 10293 10289 10286 10283 10279 10275 10272 10269 10265 10261 10257 10253 10251 10247 10243 10240 10237 10233
10307 10305 10299 10296 10299 10310 10319 10325 10342 10358 10360 10357 10348 10331 10329 10343 10346 10341 10339 10337 10340 10346 10350 10352 10350 10342 10333 10328 10333 10344 10350 10351 10350 10346 10340 10331 10324 10328 10333 10332 10329 10326 10323 10324 10325 10324 10324 10323 10322 10320 10317 10316 10317 10317 10317 10316 10313 10309 10305 10302 10299 10296 10295 10294 10292 10290 10287 10285 10282 10278 10274 10271 10268 10264 10261 10258 10256 10252 10248 10244 10241 10237 10234 10230 10227 10223 10219
10288 10286 10279 10279 10279 10284 10300 10318 10331 10339 10339 10338 10332 10312 10302 10314 10325 10327 10328 10330 10333 10337 10337 10332 10325 10316 10306 10303 10316 10334 10340 10337 10333 10329 10325 10320 10314 10314 10316 10316 10314 10310 10306 10307 10309 10309 10310 10310 10308 10305 10302 10302 10302 10302 10302 10301 10298 10295 10291 10286 10283 10281 10280 10278 10276 10275 10273 10271 10267 10263 10259 10257 10253 10250 10248 10245 10242 10239 10235 10232 10228 10224 10221 10217 10213 10209 10205
10271 10270 10262 10261 10261 10266 10286 10306 10314 10317 10317 10317 10309 10287 10278 10297 10315 10317 10317 10319 10317 10312 10308 10306 10303 10297 10289 10290 10306 10321 10323 10318 10315 10312 10310 10309 10305 10300 10298 10298 10298 10295 10291 10289 10291 10293 10294 10295 10294 10291 10288 10287 10286 10286 10287 10285 10284 10281 10275 10270 10268 10266 10264 10262 10260 10260 10259 10256 10253 10249 10245 10242 10239 10236 10234 10231 10228 10226 10223 10219 10216 10212 10208 10204 10200 10196 10192
10257 10256 10247 10246 10249 10257 10273 10287 10294 10297 10294 10289 10277 10262 10268 10291 10302 10298 10297 10295 10290 10285 10285 10287 10286 10282 10278 10282 10292 10301 10301 10298 10297 10297 10297 10295 10290 10287 10286 10284 10281 10278 10274 10271 10271 10273 10275 10277 10278 10275 10272 10270 10269 10270 10270 10268 10268 10264 10257 10254 10254 10250 10247 10245 10244 10244 10242 10239 10237 10234 10231 10228 10225 10222 10220 10217 10214 10212 10209 10205 10202 10198 10194 10190 10186 10182 10178
10246 10243 10237 10235 10239 10250 10261 10266 10270 10275 10271 10259 10248 10251 10266 10273 10268 10268 10273 10272 10269 10270 10271 10271 10270 10269 10270 10271 10274 10278 10280 10279 10280 10281 10281 10280 10277 10274 10274 10272 10267 10262 10257 10252 10251 10253 10256 10257 10259 10258 10256 10255 10254 10253 10252 10251 10250 10245 10240 10239 10238 10234 10230 10228 10227 10226 10224 10222 10220 10218 10216 10213 10210 10207 10205 10202 10199 10196 10193 10190 10187 10183 10179 10175 10172 10169 10165
10234 10230 10224 10221 10226 10238 10246 10248 10251 10252 10245 10234 10231 10242 10253 10249 10243 10246 10250 10251 10254 10256 10256 10256 10256 10257 10259 10258 10256 10257 10258 10258 10260 10263 10266 10267 10265 10262 10260 10258 10254 10249 10243 10237 10234 10236 10238 10239 10240 10241 10240 10240 10238 10235 10234 10233 10230 10227 10225 10224 10224 10220 10216 10212 10211 10210 10208 10206 10203 10201 10199 10197 10194 10191 10189 10186 10183 10180 10177 10174 10172 10168 10165 10161 10158 10155 10152
10215 10213 10211 10209 10214 10222 10227 10231 10236 10235 10225 10219 10220 10223 10226 10229 10229 10228 10226 10228 10231 10232 10235 10239 10238 10238 10242 10242 10240 10241 10241 10241 10244 10247 10250 10252 10251 10249 10247 10243 10240 10235 10229 10224 10221 10221 10223 10224 10224 10224 10224 10224 10222 10220 10219 10216 10212 10211 10211 10209 10208 10206 10202 10199 10198 10197 10194 10191 10187 10185 10183 10181 10178 10176 10174 10171 10167 10165 10162 10160 10158 10154 10151 10148 10145 10141 10138
10193 10193 10201 10204 10204 10207 10208 10208 10216 10220 10213 10207 10205 10204 10205 10209 10208 10205 10206 10208 10209 10209 10214 10218 10217 10217 10221 10223 10225 10228 10229 10230 10231 10232 10234 10235 10235 10235 10233 10229 10226 10221 10215 10211 10209 10208 10211 10211 10209 10208 10207 10207 10206 10205 10204 10201 10197 10196 10195 10193 10191 10190 10188 10187 10185 10183 10180 10176 10173 10171 10168 10165 10162 10160 10159 10156 10153 10150 10148 10146 10143 10141 10137 10135 10131 10128 10124
10176 10175 10186 10193 10192 10192 10191 10188 10192 10198 10194 10189 10187 10186 10188 10190 10188 10187 10188 10189 10191 10193 10194 10196 10197 10198 10199 10202 10207 10211 10214 10217 10219 10218 10219 10220 10219 10218 10217 10214 10211 10207 10203 10199 10197 10196 10198 10198 10196 10194 10192 10190 10190 10191 10189 10187 10185 10182 10179 10176 10174 10173 10173 10174 10172 10169 10166 10163 10159 10157 10153 10150 10147 10145 10144 10142 10138 10135 10133 10131 10129 10127 10124 10121 10118 10114 10111
10161 10161 10170 10176 10172 10172 10174 10172 10174 10175 10169 10165 10167 10167 10169 10171 10171 10170 10169 10170 10175 10177 10175 10176 10178 10179 10181 10184 10188 10190 10194 10199 10202 10203 10203 10203 10201 10201 10201 10200 10197 10195 10192 10189 10186 10186 10186 10186 10183 10181 10178 10175 10175 10176 10175 10173 10171 10167 10163 10160 10158 10157 10158 10158 10156 10153 10151 10149 10145 10142 10139 10136 10133 10131 10129 10127 10123 10120 10119 10117 10115 10112 10110 10107 10104 10101 10098
10142 10148 10160 10161 10148 10147 10156 10158 10157 10153 10144 10140 10142 10144 10147 10152 10153 10152 10152 10151 10154 10156 10157 10159 10159 10160 10163 10166 10169 10172 10175 10179 10184 10187 10187 10187 10186 10186 10186 10186 10185 10184 10182 10180 10178 10176 10174 10172 10170 10167 10164 10162 10161 10161 10161 10160 10156 10151 10148 10144 10142 10142 10143 10142 10140 10137 10136 10134 10131 10128 10125 10122 10120 10118 10115 10112 10109 10107 10105 10103 10101 10099 10097 10094 10091 10088 10085
10126 10134 10147 10145 10128 10127 10139 10141 10135 10127 10120 10120 10123 10123 10126 10132 10135 10136 10135 10132 10132 10136 10139 10140 10141 10143 10146 10148 10150 10155 10159 10162 10167 10169 10169 10170 10170 10169 10170 10171 10172 10173 10172 10171 10168 10165 10163 10159 10155 10152 10149 10147 10147 10147 10147 10144 10140 10136 10133 10130 10128 10128 10129 10128 10125 10122 10120 10119 10117 10114 10111 10109 10107 10105 10102 10099 10097 10095 10093 10091 10088 10086 10084 10082 10079 10076 10073
10111 10121 10127 10120 10110 10116 10128 10124 10108 10097 10098 10106 10111 10110 10109 10110 10111 10114 10116 10114 10114 10116 10118 10121 10123 10126 10130 10132 10133 10136 10142 10147 10149 10150 10151 10152 10152 10152 10152 10152 10154 10157 10158 10157 10156 10153 10151 10146 10140 10136 10134 10133 10133 10134 10132 10128 10124 10121 10118 10115 10114 10114 10115 10113 10110 10107 10105 10104 10103 10101 10099 10096 10094 10092 10089 10086 10084 10083 10081 10079 10077 10074 10072 10069 10067 10064 10061
10096 10109 10105 10091 10087 10099 10113 10110 10091 10077 10081 10091 10094 10093 10093 10090 10088 10090 10094 10096 10097 10097 10098 10101 10104 10108 10114 10117 10115 10117 10124 10129 10130 10131 10133 10134 10135 10135 10134 10132 10134 10136 10137 10137 10137 10136 10134 10129 10123 10120 10120 10119 10119 10118 10115 10112 10109 10105 10101 10100 10099 10099 10099 10098 10095 10093 10091 10091 10089 10088 10086 10084 10081 10078 10076 10074 10072 10070 10068 10066 10064 10061 10059 10056 10054 10051 10048
10083 10091 10083 10069 10066 10075 10090 10095 10081 10067 10068 10074 10074 10074 10074 10071 10070 10072 10075 10079 10084 10084 10082 10083 10085 10088 10095 10099 10099 10101 10106 10111 10112 10112 10114 10116 10118 10120 10118 10115 10116 10117 10115 10113 10114 10115 10114 10110 10106 10105 10106 10105 10104 10102 10099 10096 10092 10088 10085 10084 10084 10084 10084 10083 10082 10080 10078 10077 10077 10075 10072 10070 10068 10066 10064 10062 10060 10058 10056 10053 10050 10048 10046 10043 10040 10037 10034
10064 10071 10066 10057 10055 10059 10067 10071 10064 10055 10055 10056 10056 10057 10057 10056 10055 10056 10057 10061 10066 10069 10070 10070 10069 10068 10072 10078 10083 10086 10090 10094 10095 10094 10094 10097 10099 10101 10101 10099 10098 10099 10097 10094 10092 10093 10094 10092 10091 10090 10090 10090 10088 10086 10084 10080 10074 10070 10069 10069 10069 10069 10069 10069 10068 10067 10065 10064 10064 10061 10058 10056 10054 10053 10052 10050 10048 10047 10043 10040 10037 10036 10034 10031 10027 10024 10020
10045 10055 10053 10044 10041 10044 10047 10048 10045 10040 10036 10036 10039 10042 10043 10043 10043 10043 10043 10044 10047 10050 10054 10059 10059 10056 10054 10056 10062 10067 10072 10077 10079 10077 10076 10078 10081 10082 10082 10080 10078 10079 10079 10078 10075 10075 10074 10074 10074 10073 10073 10074 10073 10070 10066 10062 10058 10055 10055 10055 10055 10056 10056 10056 10056 10055 10053 10052 10050 10047 10044 10041 10040 10039 10039 10037 10036 10034 10031 10028 10025 10023 10022 10019 10016 10011 10007
10024 10032 10032 10024 10022 10026 10028 10031 10031 10025 10019 10017 10020 10025 10027 10027 10027 10029 10030 10031 10033 10036 10038 10042 10045 10046 10044 10042 10044 10047 10049 10054 10060 10061 10060 10062 10064 10065 10063 10061 10058 10057 10057 10059 10059 10058 10057 10057 10056 10054 10055 10056 10055 10051 10048 10046 10043 10041 10041 10041 10041 10043 10044 10043 10043 10042 10040 10039 10036 10032 10029 10027 10026 10026 10025 10024 10023 10020 10017 10015 10012 10011 10010 10007 10003 9999 9995
10001 10006 10008 10004 10004 10008 10010 10011 10013 10011 10006 10001 10001 10007 10011 10012 10012 10014 10016 10018 10020 10023 10026 10027 10028 10030 10032 10032 10032 10031 10033 10036 10040 10044 10045 10046 10047 10048 10045 10042 10038 10035 10035 10038 10041 10041 10040 10039 10037 10036 10036 10036 10034 10033 10032 10031 10028 10027 10027 10027 10028 10030 10031 10030 10029 10028 10026 10024 10021 10018 10016 10014 10014 10013 10011 10011 10009 10007 10004 10002 10000 9998 9996 9994 9990 9986 9982
9986 9990 9990 9987 9987 9992 9996 9994 9992 9993 9992 9989 9988 9993 9998 10000 10000 10001 10003 10004 10005 10007 10010 10011 10010 10011 10015 10019 10019 10018 10019 10021 10023 10026 10028 10028 10028 10028 10027 10023 10019 10016 10016 10020 10024 10025 10023 10019 10017 10017 10018 10017 10017 10017 10017 10015 10013 10013 10013 10014 10015 10017 10017 10016 10015 10014 10013 10010 10008 10005 10003 10002 10001 9999 9998 9997 9995 9993 9990 9989 9987 9985 9983 9980 9977 9973 9970
9970 9973 9975 9974 9973 9976 9980 9979 9977 9977 9977 9975 9976 9979 9984 9987 9990 9991 9989 9989 9990 9991 9992 9993 9991 9991 9993 9998 10000 9999 9999 10001 10003 10006 10009 10010 10008 10006 10005 10002 9999 9998 10000 10004 10007 10006 10003 10001 10000 10000 10001 10001 10001 10001 10000 9999 9998 9998 9999 10001 10001 10002 10002 10001 10001 10000 9999 9996 9994 9993 9991 9989 9987 9986 9985 9984 9982 9980 9978 9976 9974 9972 9970 9966 9963 9960 9957
9954 9957 9960 9962 9961 9961 9963 9965 9965 9965 9964 9963 9964 9966 9969 9973 9978 9980 9978 9975 9973 9975 9976 9975 9974 9973 9972 9973 9975 9976 9976 9978 9982 9985 9988 9990 9989 9986 9983 9980 9979 9981 9985 9987 9986 9985 9983 9983 9984 9985 9985 9986 9985 9984 9983 9983 9982 9982 9984 9986 9986 9987 9988 9988 9987 9986 9984 9982 9980 9978 9976 9974 9973 9972 9972 9971 9969 9967 9966 9964 9962 9959 9956 9953 9950 9947 9944
9941 9943 9945 9947 9948 9947 9948 9950 9952 9953 9954 9953 9952 9953 9953 9954 9957 9961 9962 9959 9958 9959 9960 9959 9957 9956 9954 9952 9952 9955 9957 9960 9963 9967 9970 9972 9971 9967 9963 9960 9960 9964 9969 9969 9966 9965 9965 9966 9967 9969 9970 9969 9968 9967 9966 9965 9965 9967 9969 9971 9972 9974 9975 9973 9972 9970 9968 9967 9965 9962 9961 9960 9959 9959 9958 9957 9956 9954 9953 9951 9949 9945 9942 9939 9937 9934 9931
9931 9931 9930 9930 9932 9933 9933 9934 9936 9937 9938 9937 9937 9937 9937 9935 9935 9937 9938 9938 9939 9940 9942 9943 9942 9940 9938 9937 9937 9938 9941 9944 9947 9950 9952 9952 9952 9950 9946 9943 9943 9947 9951 9952 9950 9948 9948 9949 9950 9951 9952 9951 9949 9948 9948 9948 9950 9952 9955 9958 9960 9960 9959 9957 9955 9953 9952 9951 9950 9949 9948 9947 9946 9945 9945 9944 9942 9941 9940 9938 9936 9932 9929 9926 9923 9920 9918
9919 9921 9918 9916 9916 9917 9918 9919 9919 9920 9921 9921 9919 9919 9918 9916 9917 9918 9918 9919 9920 9921 9922 9925 9927 9925 9924 9925 9925 9925 9926 9928 9931 9933 9933 9933 9933 9931 9928 9927 9929 9931 9933 9934 9934 9933 9932 9933 9933 9933 9933 9931 9930 9930 9931 9933 9936 9939 9942 9944 9945 9944 9942 9940 9938 9938 9937 9936 9936 9936 9935 9934 9933 9932 9931 9930 9928 9928 9927 9926 9923 9920 9916 9913 9910 9907 9905
9905 9908 9908 9906 9904 9902 9903 9905 9905 9904 9905 9904 9902 9900 9899 9899 9901 9903 9904 9904 9905 9905 9906 9907 9909 9910 9910 9911 9912 9911 9911 9911 9913 9916 9916 9915 9915 9915 9913 9913 9915 9916 9917 9917 9917 9916 9916 9917 9916 9915 9914 9913 9913 9915 9916 9919 9923 9926 9927 9928 9928 9927 9925 9924 9923 9923 9922 9922 9923 9923 9921 9919 9919 9918 9916 9916 9915 9914 9914 9912 9910 9907 9904 9901 9898 9895 9893
9893 9894 9895 9896 9894 9891 9890 9890 9890 9889 9888 9888 9886 9884 9884 9885 9886 9887 9888 9888 9889 9890 9891 9891 9893 9893 9893 9892 9893 9894 9894 9894 9897 9899 9900 9900 9900 9901 9901 9901 9901 9900 9900 9900 9900 9900 9899 9899 9898 9897 9898 9898 9899 9901 9903 9906 9909 9911 9911 9911 9911 9911 9911 9910 9909 9909 9909 9910 9910 9908 9906 9905 9904 9903 9902 9902 9901 9901 9900 9899 9897 9895 9892 9889 9886 9883 9881
9878 9881 9882 9883 9883 9882 9879 9877 9876 9875 9874 9873 9872 9870 9869 9870 9870 9871 9872 9872 9872 9874 9875 9876 9876 9877 9876 9875 9875 9876 9877 9879 9882 9885 9886 9886 9885 9886 9888 9887 9886 9884 9883 9883 9883 9882 9881 9881 9882 9883 9884 9886 9887 9888 9889 9892 9894 9895 9895 9895 9896 9896 9896 9896 9896 9896 9896 9896 9894 9893 9891 9890 9890 9889 9889 9889 9888 9888 9887 9885 9883 9881 9878 9876 9874 9872 9870
9864 9867 9869 9869 9869 9870 9869 9866 9865 9864 9863 9861 9860 9858 9857 9856 9855 9855 9856 9856 9856 9857 9860 9861 9862 9863 9863 9863 9863 9863 9864 9865 9867 9870 9870 9870 9869 9871 9872 9873 9871 9869 9868 9868 9867 9865 9865 9867 9870 9871 9872 9873 9873 9874 9876 9877 9878 9879 9880 9880 9880 9881 9881 9882 9882 9882 9881 9880 9879 9878 9877 9876 9875 9876 9877 9877 9876 9875 9872 9870 9868 9867 9865 9863 9861 9860 9858
9851 9853 9855 9856 9856 9855 9855 9854 9853 9853 9852 9850 9848 9847 9847 9847 9843 9841 9841 9841 9840 9842 9845 9847 9849 9852 9852 9851 9851 9851 9850 9851 9853 9854 9855 9855 9856 9857 9859 9859 9858 9857 9856 9855 9853 9851 9851 9854 9856 9856 9857 9858 9859 9860 9862 9862 9862 9864 9865 9865 9866 9867 9867 9868 9868 9867 9866 9866 9865 9864 9863 9863 9863 9863 9863 9863 9862 9860 9858 9856 9855 9854 9852 9851 9850 9849 9847
9840 9840 9841 9841 9841 9840 9840 9840 9840 9840 9840 9840 9838 9836 9836 9837 9835 9832 9829 9828 9828 9830 9833 9835 9837 9838 9839 9838 9838 9837 9837 9837 9839 9840 9842 9844 9845 9846 9846 9846 9845 9843 9842 9840 9838 9837 9838 9839 9839 9840 9842 9844 9845 9847 9847 9846 9847 9850 9851 9852 9852 9852 9852 9853 9853 9852 9852 9851 9851 9850 9850 9850 9850 9850 9850 9850 9848 9847 9845 9844 9843 9842 9841 9840 9839 9838 9836
9829 9828 9828 9826 9826 9826 9827 9827 9827 9827 9828 9829 9829 9827 9825 9825 9824 9822 9821 9820 9819 9819 9821 9823 9824 9824 9825 9825 9825 9826 9825 9826 9826 9828 9830 9831 9832 9833 9833 9832 9831 9830 9828 9826 9825 9824 9824 9824 9825 9827 9829 9831 9832 9832 9832 9832 9834 9836 9838 9838 9838 9838 9838 9838 9838 9838 9838 9838 9837 9837 9837 9837 9838 9838 9838 9837 9836 9835 9834 9833 9832 9831 9831 9829 9828 9826 9824
9817 9816 9815 9814 9813 9814 9815 9816 9816 9816 9816 9817 9819 9818 9815 9814 9813 9812 9811 9811 9811 9810 9810 9811 9812 9812 9812 9812 9813 9814 9814 9815 9815 9816 9816 9817 9818 9819 9819 9818 9818 9817 9816 9815 9814 9813 9813 9813 9814 9815 9817 9817 9817 9818 9818 9820 9821 9823 9823 9824 9824 9824 9824 9825 9824 9825 9825 9825 9825 9825 9825 9826 9826 9826 9826 9825 9824 9823 9823 9822 9822 9821 9819 9818 9816 9814 9812
9804 9804 9804 9804 9804 9804 9805 9806 9806 9805 9805 9806 9808 9807 9805 9804 9803 9802 9801 9801 9801 9801 9801 9801 9801 9801 9801 9801 9801 9801 9801 9802 9802 9802 9803 9804 9805 9806 9806 9806 9806 9806 9805 9804 9803 9803 9803 9803 9803 9804 9805 9805 9805 9805 9806 9807 9808 9808 9809 9809 9810 9811 9812 9812 9812 9813 9813 9813 9813 9813 9814 9814 9814 9814 9814 9813 9813 9813 9812 9812 9811 9809 9808 9806 9804 9802 9801
9792 9794 9795 9795 9795 9795 9794 9795 9794 9794 9794 9796 9797 9796 9795 9794 9793 9792 9791 9791 9791 9791 9791 9791 9792 9791 9790 9790 9790 9790 9790 9790 9790 9791 9792 9793 9793 9793 9794 9794 9795 9795 9795 9794 9794 9793 9793 9793 9793 9793 9793 9793 9793 9793 9794 9794 9795 9795 9796 9797 9798 9799 9800 9800 9800 9800 9800 9800 9801 9802 9802 9803 9803 9803 9803 9803 9803 9802 9801 9800 9799 9797 9796 9794 9792 9791 9790
9784 9786 9786 9785 9785 9784 9784 9784 9784 9784 9784 9785 9785 9785 9784 9784 9783 9782 9782 9782 9782 9782 9782 9782 9782 9782 9781 9781 9781 9781 9780 9781 9781 9781 9782 9782 9782 9782 9783 9783 9783 9783 9783 9783 9783 9783 9782 9782 9782 9782 9782 9782 9782 9782 9783 9783 9784 9784 9785 9786 9787 9787 9787 9787 9788 9788 9789 9790 9791 9791 9792 9792 9792 9792 9792 9792 9791 9790 9789 9788 9787 9785 9783 9782 9780 9779 9778
9775 9776 9775 9775 9775 9774 9774 9775 9775 9775 9775 9774 9774 9774 9774 9773 9773 9773 9773 9773 9773 9773 9772 9772 9772 9772 9773 9772 9772 9771 9771 9771 9771 9771 9772 9772 9771 9771 9771 9771 9771 9771 9771 9772 9772 9772 9772 9773 9773 9772 9772 9772 9772 9772 9772 9773 9774 9774 9775 9775 9775 9775 9775 9776 9777 9778 9779 9780 9780 9781 9781 9781 9781 9781 9780 9780 9779 9778 9777 9776 9775 9773 9772 9771 9770 9768 9767
9764 9764 9765 9765 9765 9766 9766 9767 9766 9766 9765 9765 9764 9764 9764 9764 9764 9764 9764 9764 9764 9764 9763 9763 9763 9763 9763 9763 9762 9762 9762 9761 9761 9761 9762 9761 9761 9761 9761 9761 9761 9761 9761 9761 9762 9762 9763 9763 9763 9762 9762 9762 9762 9762 9762 9763 9764 9764 9764 9764 9765 9765 9765 9766 9766 9767 9768 9769 9769 9769 9769 9769 9769 9769 9769 9768 9768 9767 9766 9764 9763 9762 9761 9760 9759 9757 9756
9755 9755 9755 9756 9757 9758 9758 9758 9758 9757 9757 9756 9756 9756 9756 9756 9756 9755 9755 9755 9755 9754 9754 9754 9754 9754 9754 9754 9753 9753 9752 9752 9751 9751 9752 9751 9751 9752 9752 9752 9752 9752 9752 9752 9753 9753 9753 9753 9753 9752 9752 9753 9752 9752 9753 9753 9753 9754 9754 9754 9754 9755 9755 9756 9756 9756 9757 9757 9757 9758 9758 9758 9758 9758 9757 9757 9756 9755 9754 9753 9752 9751 9750 9749 9748 9747 9746
9747 9747 9747 9748 9749 9749 9749 9749 9749 9749 9748 9748 9748 9748 9748 9748 9748 9747 9746 9746 9746 9746 9746 9746 9746 9746 9746 9745 9745 9744 9744 9743 9743 9743 9743 9742 9743 9743 9743 9743 9743 9743 9743 9744 9744 9744 9743 9743 9743 9743 9743 9743 9743 9743 9744 9744 9744 9744 9744 9744 9745 9745 9745 9745 9745 9745 9746 9746 9746 9747 9747 9747 9746 9746 9745 9744 9743 9743 9742 9741 9740 9739 9739 9738 9737 9736 9735
9740 9739 9740 9740 9741 9741 9741 9741 9741 9740 9740 9740 9740 9741 9741 9741 9740 9740 9739 9739 9739 9739 9739 9739 9739 9739 9738 9738 9737 9736 9735 9735 9735 9735 9734 9734 9734 9735 9735 9735 9734 9734 9734 9735 9735 9735 9734 9734 9734 9734 9734 9734 9734 9734 9734 9734 9734 9735 9735 9735 9735 9735 9735 9735 9735 9735 9735 9735 9735 9735 9735 9735 9734 9734 9733 9733 9732 9732 9731 9730 9729 9729 9728 9727 9726 9725 9723
9732 9732 9732 9732 9733 9733 9733 9733 9732 9732 9732 9732 9732 9733 9733 9733 9733 9733 9732 9731 9731 9731 9731 9731 9731 9731 9730 9730 9729 9728 9727 9727 9727 9727 9727 9726 9726 9726 9727 9726 9726 9726 9726 9726 9726 9725 9725 9725 9725 9725 9725 9725 9725 9725 9725 9725 9725 9725 9725 9725 9725 9725 9725 9725 9725 9725 9725 9725 9724 9724 9724 9723 9723 9723 9722 9722 9722 9721 9720 9719 9718 9717 9716 9715 9714 9713 9711
9724 9724 9725 9725 9725 9725 9725 9725 9725 9725 9725 9725 9725 9725 9726 9726 9725 9725 9725 9724 9724 9724 9724 9723 9723 9723 9723 9723 9722 9722 9721 9720 9720 9720 9719 9719 9719 9719 9719 9719 9718 9718 9717 9717 9717 9717 9717 9717 9717 9717 9716 9716 9716 9716 9716 9716 9716 9716 9715 9715 9715 9715 9715 9715 9715 9715 9715 9714 9714 9714 9713 9713 9713 9712 9712 9711 9711 9710 9709 9708 9707 9706 9705 9704 9702 9701 9700
9718 9718 9718 9718 9718 9718 9718 9718 9718 9717 9718 9718 9718 9718 9718 9718 9718 9718 9717 9717 9717 9717 9717 9717 9717 9716 9716 9716 9716 9715 9715 9714 9714 9713 9713 9712 9712 9712 9711 9711 9711 9711 9710 9710 9709 9709 9709 9709 9709 9709 9709 9709 9708 9708 9708 9707 9707 9707 9706 9706 9706 9706 9706 9705 9705 9705 9705 9705 9704 9704 9703 9703 9702 9702 9701 9701 9700 9699 9698 9697 9696 9695 9694 9693 9692 9691 9690